Tracking 20626 objects as of 10-Apr-2020
HD Live streaming from Space Station
objects crossing your sky now

SATCOM 3 DEB

Track SATCOM 3 DEB now!


NORAD ID: 32984
Int'l Code: 1979-101K
Perigee: 8,173.1 km
Apogee: 35,626.1 km
Inclination: 9.8 °
Period: 788.4 minutes
Semi major axis: 28270 km
RCS: 0.003 m2 (small)
Launch date: December 7, 1979
Source: United States (US)
Launch site: AIR FORCE EASTERN TEST RANGE (AFETR)

Note: This is SATELLITE DEBRIS
aabbcc
Your satellite tracking list
Your tracking list is empty




NASA's NSSDC Master Catalog

Two Line Element Set (TLE):
1 32984U 79101K   20094.89242822 -.00000149 +00000-0 +00000-0 0  9991
2 32984 009.8096 306.5634 4855383 036.6535 073.9186 01.82641798048294
Source of the keplerian elements: AFSPC